Rosetown East, Saskatchewan

3:13 PM CST on October 19, 2017 (GMT -0600)
Rosetown East

Weather History for CWRJ - September, 2013

Change the Weather History Date:

Friday, September 13, 2013

  Actual Average Record
Temperature  
Mean Temperature 68 °F -  
Max Temperature 90 °F - - ()
Min Temperature 47 °F - - ()
Cooling Degree Days 4    
Growing Degree Days 18 (Base 50)    
Moisture  
Dew Point 45 °F    
Average Humidity 46    
Maximum Humidity 74    
Minimum Humidity 13    
Precipitation  
Precipitation 0.00 in - - ()
Sea Level Pressure  
Sea Level Pressure 29.83 in    
Wind  
Wind Speed 4 mph ()    
Max Wind Speed 14 mph    
Max Gust Speed 21 mph    
T = Trace of Precipitation, MM = Missing Value Source: Averaged Metar Reports

Daily Weather History Graph

Daily Weather History Graph

Search for Another Location

Airport or City:

Trip Planner

Search our weather history database for the weather conditions in past years. The results will help you decide how hot, cold, wet, or windy it might be!

Date:

Astronomy

Sep. 13, 2013 Rise Set
Actual Time 6:43 AM CST 7:29 PM CST
Civil Twilight 6:10 AM CST 8:03 PM CST
Nautical Twilight 5:29 AM CST 8:44 PM CST
Astronomical Twilight 4:46 AM CST 9:26 PM CST
Moon 3:52 PM CST (9/13) No Moon Set
Length of Visible Light 13h 53m
Length of Day
12h 46m
Waxing Gibbous, 62% of the Moon is Illuminated
Sep 13
Waxing Gibbous
Sep 19
Full
Sep 26
Last Quarter
Oct 4
New
Oct 11
First Quarter

Hourly Weather History & Observations

Time (CST) Temp. Dew Point Humidity Pressure Visibility Wind Dir Wind Speed Gust Speed Precip Events Conditions
12:00 AM 55 °F 41 °F 48% 30.00 in - South 3.5 mph - -  
12:00 AM 55.2 °F 40.8 °F 58% 30.00 in - South 3.5 mph - N/A   Unknown
1:00 AM 54.1 °F 41.2 °F 62% 29.98 in - Calm Calm - N/A   Unknown
2:00 AM 51.4 °F 40.8 °F 67% 29.97 in - South 2.3 mph - N/A   Unknown
3:00 AM 54 °F 43 °F 56% 29.95 in - South 1.2 mph - -  
3:00 AM 54.3 °F 42.8 °F 65% 29.95 in - South 1.2 mph - N/A   Unknown
4:00 AM 53.8 °F 43.3 °F 68% 29.93 in - SSE 3.5 mph - N/A   Unknown
5:00 AM 53.4 °F 44.1 °F 71% 29.91 in - SSE 3.5 mph - N/A   Unknown
6:00 AM 54 °F 44 °F 60% 29.90 in - SSW 3.5 mph - -  
6:00 AM 53.8 °F 44.2 °F 70% 29.90 in - SSW 3.5 mph - N/A   Unknown
7:00 AM 52.5 °F 44.4 °F 74% 29.89 in - SE 2.3 mph - N/A   Unknown
8:00 AM 55.0 °F 45.9 °F 71% 29.89 in - South 1.2 mph - N/A   Unknown
9:00 AM 65 °F 47 °F 42% 29.86 in - SSW 6.9 mph - -  
9:00 AM 64.8 °F 47.5 °F 53% 29.86 in - SSW 6.9 mph - N/A   Unknown
10:00 AM 68.2 °F 47.8 °F 48% 29.85 in - WSW 6.9 mph - N/A   Unknown
11:00 AM 75.0 °F 48.9 °F 40% 29.81 in - SW 3.5 mph - N/A   Unknown
12:00 PM 81 °F 48 °F 21% 29.78 in - West 4.6 mph - -  
12:00 PM 80.6 °F 48.0 °F 32% 29.78 in - West 4.6 mph - N/A   Unknown
1:00 PM 83.8 °F 48.0 °F 29% 29.77 in - NW 3.5 mph - N/A   Unknown
2:00 PM 88.0 °F 46.8 °F 24% 29.74 in - SW 6.9 mph - N/A   Unknown
3:00 PM 89 °F 46 °F 13% 29.72 in - SW 8.1 mph - -  
3:00 PM 89.1 °F 45.5 °F 22% 29.72 in - SW 8.1 mph - N/A   Unknown
4:00 PM 88.9 °F 44.6 °F 21% 29.71 in - West 8.1 mph - N/A   Unknown
5:00 PM 90.3 °F 43.5 °F 20% 29.70 in - WSW 5.8 mph - N/A   Unknown
6:00 PM 88.3 °F 42.6 °F 20% 29.70 in - NW 8.1 mph - N/A   Unknown
7:00 PM 82.6 °F 44.1 °F 26% 29.70 in - NNW 4.6 mph - N/A   Unknown
8:00 PM 71.6 °F 44.1 °F 37% 29.72 in - North 4.6 mph - N/A   Unknown
9:00 PM 69 °F 48 °F 36% 29.73 in - NNW 8.1 mph - -  
9:00 PM 69.3 °F 48.0 °F 47% 29.73 in - NNW 8.1 mph - N/A   Unknown
10:00 PM 70.5 °F 51.4 °F 51% 29.75 in - North 13.8 mph - N/A   Unknown
11:00 PM 68.4 °F 53.8 °F 60% 29.78 in - NNE 12.7 mph 20.7 mph N/A   Unknown